Quillayute, WA

7:15 PM PDT on May 27, 2017 (GMT -0700)
Quillayute

Weather History for KUIL - October, 2014

Change the Weather History Date:

Thursday, October 30, 2014

  Actual Average Record
Temperature  
Mean Temperature 54 °F 47 °F  
Max Temperature 58 °F 54 °F 64 °F (1970)
Min Temperature 49 °F 40 °F 24 °F (1972)
Degree Days  
Heating Degree Days 11 18  
Month to date heating degree days 246 448  
Since 1 July heating degree days 635 1073  
Cooling Degree Days 0 0  
Month to date cooling degree days 0 0  
Year to date cooling degree days 25 19  
Growing Degree Days 4 (Base 50)    
Moisture  
Dew Point 53 °F    
Average Humidity 92    
Maximum Humidity 100    
Minimum Humidity 83    
Precipitation  
Precipitation 1.08 in 0.45 in 3.64 in (1999)
Month to date precipitation 17.11 10.04  
Year to date precipitation 77.51 70.58  
Sea Level Pressure  
Sea Level Pressure 29.75 in    
Wind  
Wind Speed 6 mph (SSE)    
Max Wind Speed 14 mph    
Max Gust Speed 22 mph    
Visibility 3 miles    
Events Rain    
T = Trace of Precipitation, MM = Missing Value Source: NWS Daily Summary

Daily Weather History Graph

Daily Weather History Graph

Search for Another Location

Airport or City:

Trip Planner

Search our weather history database for the weather conditions in past years. The results will help you decide how hot, cold, wet, or windy it might be!

Date:

Astronomy

Oct. 30, 2014 Rise Set
Actual Time 8:00 AM PDT 6:02 PM PDT
Civil Twilight 7:27 AM PDT 6:35 PM PDT
Nautical Twilight 6:51 AM PDT 7:11 PM PDT
Astronomical Twilight 6:15 AM PDT 7:47 PM PDT
Moon 2:09 PM PDT (10/30) No Moon Set
Length of Visible Light 11h 07m
Length of Day
10h 02m
Waxing Crescent, 46% of the Moon is Illuminated
Oct 30
Waxing Crescent
Oct 30
First Quarter
Nov 6
Full
Nov 14
Last Quarter
Nov 22
New

Hourly Weather History & Observations

Time (PDT) Temp. Dew Point Humidity Pressure Visibility Wind Dir Wind Speed Gust Speed Precip Events Conditions
12:53 AM 51.1 °F 48.9 °F 92% 29.94 in 7.0 mi ENE 9.2 mph - N/A   Overcast
1:53 AM 51.1 °F 48.9 °F 92% 29.92 in 7.0 mi ENE 10.4 mph - N/A   Overcast
2:53 AM 51.1 °F 48.0 °F 89% 29.91 in 7.0 mi ENE 9.2 mph - N/A   Mostly Cloudy
3:53 AM 51.1 °F 46.9 °F 86% 29.88 in 7.0 mi ENE 9.2 mph - N/A   Mostly Cloudy
4:53 AM 51.1 °F 48.0 °F 89% 29.84 in 3.0 mi East 6.9 mph - 0.00 in Rain Light Rain
5:53 AM 50.0 °F 48.9 °F 96% 29.82 in 4.0 mi East 8.1 mph - 0.07 in Rain Rain
6:53 AM 50.0 °F 48.9 °F 96% 29.76 in 7.0 mi East 8.1 mph - 0.01 in   Overcast
7:53 AM 51.1 °F 50.0 °F 96% 29.77 in 2.5 mi ESE 4.6 mph - 0.05 in Rain Rain
8:03 AM 51.1 °F 50.0 °F 96% 29.76 in 1.8 mi Calm Calm - 0.06 in Rain Rain
8:11 AM 51.1 °F 51.1 °F 100% 29.77 in 3.0 mi Calm Calm - 0.07 in Rain Light Rain
8:31 AM 52.0 °F 52.0 °F 100% 29.77 in 1.8 mi Calm Calm - 0.10 in Rain Rain
8:38 AM 53.1 °F 52.0 °F 96% 29.77 in 2.5 mi North - - 0.10 in Rain Light Rain
8:46 AM 55.0 °F 54.0 °F 96% 29.77 in 3.0 mi Variable 5.8 mph - 0.11 in Rain Light Rain
8:53 AM 55.9 °F 55.0 °F 97% 29.78 in 2.5 mi South 8.1 mph - 0.12 in Rain Light Rain
9:04 AM 55.9 °F 55.9 °F 100% 29.77 in 1.5 mi South 9.2 mph - 0.03 in Rain Rain
9:18 AM 57.0 °F 55.9 °F 96% 29.77 in 1.2 mi SSE 8.1 mph - 0.08 in Rain Rain
9:22 AM 57.0 °F 55.9 °F 96% 29.77 in 2.0 mi SSE 8.1 mph - 0.09 in Rain Light Rain
9:53 AM 57.0 °F 55.9 °F 96% 29.77 in 3.0 mi Variable 6.9 mph 17.3 mph 0.12 in Rain Light Rain
10:53 AM 57.0 °F 55.9 °F 96% 29.76 in 4.0 mi SSE 10.4 mph - 0.04 in Rain Light Rain
11:25 AM 57.0 °F 57.0 °F 100% 29.76 in 4.0 mi Variable 5.8 mph - 0.01 in Rain Light Rain
11:53 AM 57.9 °F 57.0 °F 97% 29.76 in 3.0 mi South 8.1 mph - 0.01 in Rain Light Rain
12:41 PM 57.9 °F 57.0 °F 97% 29.74 in 2.5 mi SSE 8.1 mph - 0.02 in Rain Light Rain
12:47 PM 57.2 °F 57.2 °F 100% 29.73 in 2.5 mi Variable 6.9 mph - 0.02 in Rain Light Rain
12:53 PM 57.9 °F 57.0 °F 97% 29.74 in 1.2 mi South 5.8 mph - 0.03 in Rain Light Rain
1:03 PM 57.0 °F 57.0 °F 100% 29.72 in 1.2 mi Variable 5.8 mph - 0.05 in Rain Light Rain
1:09 PM 57.9 °F 57.0 °F 97% 29.72 in 2.0 mi SSE 4.6 mph - 0.05 in Rain Light Rain
1:14 PM 57.9 °F 57.0 °F 97% 29.71 in 1.8 mi Variable 3.5 mph - 0.06 in Rain Light Rain
1:36 PM 57.9 °F 57.0 °F 97% 29.70 in 2.0 mi South 6.9 mph - 0.08 in Rain Light Rain
1:46 PM 57.9 °F 57.0 °F 97% 29.70 in 1.2 mi South 9.2 mph 19.6 mph 0.11 in Rain Rain
1:53 PM 57.9 °F 57.0 °F 97% 29.70 in 1.2 mi South 10.4 mph 20.7 mph 0.13 in Rain Rain
1:59 PM 57.9 °F 57.0 °F 97% 29.69 in 1.5 mi Variable 6.9 mph 17.3 mph 0.02 in Rain Light Rain
2:10 PM 57.9 °F 57.0 °F 97% 29.69 in 3.0 mi South 11.5 mph 18.4 mph 0.03 in Rain Light Rain
2:21 PM 57.9 °F 57.0 °F 97% 29.68 in 3.0 mi Variable 6.9 mph 17.3 mph 0.04 in Rain Light Rain
2:31 PM 57.9 °F 57.0 °F 97% 29.68 in 2.5 mi SSE 9.2 mph 19.6 mph 0.04 in Rain Light Rain
2:35 PM 57.9 °F 57.0 °F 97% 29.68 in 2.5 mi SSE 10.4 mph 19.6 mph 0.05 in Rain Light Rain
2:40 PM 57.9 °F 57.0 °F 97% 29.68 in 1.8 mi South 8.1 mph 16.1 mph 0.06 in Rain Rain
2:53 PM 57.9 °F 57.0 °F 97% 29.69 in 1.8 mi South 12.7 mph 19.6 mph 0.10 in Rain Light Rain
3:01 PM 57.9 °F 57.0 °F 97% 29.69 in 2.0 mi South 10.4 mph 21.9 mph 0.01 in Rain Rain
3:08 PM 57.0 °F 57.0 °F 100% 29.71 in 1.5 mi WNW 10.4 mph 20.7 mph 0.03 in Rain Rain
3:11 PM 55.9 °F 55.0 °F 97% 29.70 in 1.0 mi West 10.4 mph 20.7 mph 0.05 in Rain Heavy Rain
3:24 PM 54.0 °F 53.1 °F 97% 29.70 in 1.5 mi NW 9.2 mph - 0.13 in Rain Light Rain
3:34 PM 53.1 °F 53.1 °F 100% 29.71 in 2.0 mi NW 11.5 mph - 0.14 in Rain Light Rain
3:41 PM 53.1 °F 53.1 °F 100% 29.70 in 1.8 mi NW 9.2 mph - 0.15 in Rain Light Rain
3:45 PM 53.1 °F 52.0 °F 96% 29.70 in 2.0 mi NW 8.1 mph - 0.16 in Rain Light Rain
3:53 PM 53.1 °F 52.0 °F 96% 29.71 in 1.5 mi WNW 10.4 mph - 0.17 in Rain Rain
4:01 PM 53.1 °F 52.0 °F 96% 29.72 in 1.0 mi West 6.9 mph - 0.03 in Rain Rain
4:21 PM 52.0 °F 52.0 °F 100% 29.72 in 2.0 mi SW 3.5 mph - 0.09 in Rain Light Rain
4:35 PM 53.1 °F 52.0 °F 96% 29.72 in 2.0 mi Calm Calm - 0.10 in Rain Light Rain
4:43 PM 53.1 °F 52.0 °F 96% 29.73 in 1.5 mi Calm Calm - 0.12 in Rain Light Rain
4:53 PM 53.1 °F 52.0 °F 96% 29.73 in 2.5 mi Calm Calm - 0.13 in Rain Light Rain
5:53 PM 52.0 °F 52.0 °F 100% 29.75 in 1.8 mi SSE 4.6 mph - 0.08 in Rain Light Rain
6:00 PM 52.0 °F 52.0 °F 100% 29.74 in 3.0 mi Calm Calm - 0.00 in Rain Light Rain
6:25 PM 52.0 °F 52.0 °F 100% 29.75 in 4.0 mi Calm Calm - 0.02 in Rain Light Rain
6:36 PM 52.0 °F 52.0 °F 100% 29.75 in 6.0 mi SSE 3.5 mph - 0.02 in Rain Light Rain
6:53 PM 52.0 °F 52.0 °F 100% 29.76 in 6.0 mi SSW 3.5 mph - 0.02 in Rain Light Rain
7:40 PM 52.0 °F 52.0 °F 100% 29.76 in 6.0 mi South 4.6 mph - 0.00 in   Overcast
7:53 PM 52.0 °F 52.0 °F 100% 29.76 in 5.0 mi Variable 3.5 mph - 0.00 in   Overcast
8:39 PM 51.1 °F 51.1 °F 100% 29.76 in 5.0 mi South 3.5 mph - N/A   Mostly Cloudy
8:46 PM 52.0 °F 51.1 °F 97% 29.76 in 5.0 mi Calm Calm - N/A   Partly Cloudy
8:53 PM 51.1 °F 51.1 °F 100% 29.76 in 6.0 mi SSE 3.5 mph - N/A   Partly Cloudy
9:53 PM 50.0 °F 50.0 °F 100% 29.76 in 5.0 mi Calm Calm - N/A   Overcast
10:53 PM 50.0 °F 50.0 °F 100% 29.77 in 5.0 mi Calm Calm - 0.00 in Rain Light Rain
11:53 PM 50.0 °F 50.0 °F 100% 29.75 in 6.0 mi Calm Calm - 0.00 in   Mostly Cloudy